Torna al catalogo

ASTRA 3B

AttivoComunicazioniGEO
NORAD 36581·PAYLOAD·🇱🇺 Luxembourg

Lanciato May 21, 2010 da Guiana Space Centre

Loading…

TLE

AggiornatoSource: CelesTrak SupGP

Epoca: Sep 14, 2026, 23:30 UTC

1 36581C 10021A   26257.97916667  .00000227  00000+0  00000+0 0  2576
2 36581   1.6951  82.3164 0004066  58.1413 229.4761  1.00271958    14

Traccia ASTRA 3B in tempo reale con AllMySat

Download on the App Store